LiveATC.Net - Listen to live air traffic control over the Internet!


ICAO: EPPO  IATA: POZ   Airport: Poznan-Lawica Henryk Wieniawski Airport
City: Poznan
Country: Poland   Continent: Europe
EPPO METAR Weather: EPPO 202130Z 22005KT 9999 OVC040 09/01 Q1032
EPPO Flight Activity (FlightAware)

EPPO Twr/App/FIS
Feed Status: UP   Listeners: 0
Listen in your browser - HTML5 player (in browser, HTML5)
Click here to listen with your own player (launches your MP3 player)
EPPO Twr/App/FIS Audio Archives
FacilityFrequency
Poznan Approach127.225
Poznan Approach129.025
Poznan FIS126.300
Poznan Tower119.975
Sponsored by: GearUp!


NOTICE

Unauthorized use prohibited. See LiveATC.net Terms of Service


Find LiveATC Audio Streams


Airport/ARTCC Code

Frequency Search
(e.g., 124.400, 128.75)
Site-wide search
 


Browse LiveATC Feeds
Top 50 LiveATC Feeds
LiveATC Feed Map
Bad Weather Areas

LiveATC FAQ
Offer LiveATC feed
Contact LiveATC.net
Press Inquiries

LiveATC on iPhone
LiveATC on Android

Windows Phone
Windows 8/10

LiveATC Mobile
(Mobile browser)

ATC Audio Archives
Interesting Recordings

LiveATC Forums


Home Page
About LiveATC.net
Make a Donation
Terms of Use
Privacy Policy

Canadian Air Freqs

AIRMETs/SIGMETs

FAA Airport Status
Nat'l Airspace Status
Arrival Demand Charts


Server Software By:
Icecast.org
Liquidsoap